Regional Weather Roundup
Issued by NWS

Home | Current Version | Previous Version | Text Only | Print | Product List | Glossary On
Versions: 1 2 3 4 5 6 7 8 9 10 11 12 13 14 15 16 17 18 19 20 21 22 23 24 25 26 27 28 29 30 31 32 33 34 35 36 37 38 39 40 41 42 43 44 45 46 47 48 49 50
000
ASUS43 KMKX 011821
RWRWI

WISCONSIN REGIONAL WEATHER ROUNDUP
NATIONAL WEATHER SERVICE MILWAUKEE/SULLIVAN WI
100 PM CDT WED OCT 01 2014

NOTE: "FAIR" INDICATES FEW OR NO CLOUDS BELOW 12,000 FEET WITH NO
SIGNIFICANT WEATHER AND/OR OBSTRUCTIONS TO VISIBILITY.

WIZ001-002-006>008-014>016-023>028-011900-
NORTHWEST WISCONSIN

CITY           SKY/WX    TMP DP  RH WIND       PRES   REMARKS
SUPERIOR ARPT  RAIN      49  49  99 E5        29.83F
6HR MIN TEMP:  47; 6HR MAX TEMP:  49; 6HR PCP:  0.48;

ASHLAND        LGT RAIN  51  49  92 SE5       29.86F FOG
6HR MIN TEMP:  43; 6HR MAX TEMP:  52; 6HR PCP:  0.11;

HAYWARD        LGT RAIN  49  47  93 SE6       29.84F FOG
6HR MIN TEMP:  47; 6HR MAX TEMP:  49; 6HR PCP:  0.27;

SIREN          RAIN      50  48  95 S5        29.83S
6HR MIN TEMP:  47; 6HR MAX TEMP:  50; 6HR PCP:  0.50;

CUMBERLAND     HVY RAIN  46  46 100 SE8       29.83F
RICE LAKE      LGT RAIN  49  48  93 SE10      29.85F
6HR MIN TEMP:  47; 6HR MAX TEMP:  49; 6HR PCP:  0.04;

CHETEK         LGT RAIN  49  48  97 E8        29.85F
6HR MIN TEMP:  46; 6HR MAX TEMP:  49; 6HR PCP:  0.37;

LADYSMITH      LGT RAIN  50  49  95 E7        29.87F
6HR MIN TEMP:  47; 6HR MAX TEMP:  50; 6HR PCP:  0.19;

EAU CLAIRE     LGT RAIN  51  48  89 SE7       29.84F
6HR MIN TEMP:  47; 6HR MAX TEMP:  51; 6HR PCP:  0.36;

MENOMONIE      RAIN      50  50  98 E8        29.83F
6HR MIN TEMP:  47; 6HR MAX TEMP:  50; 6HR PCP:  0.69;

NEW RICHMOND   RAIN      49  49  99 S3        29.83S
6HR MIN TEMP:  47; 6HR MAX TEMP:  49; 6HR PCP:  0.79;

OSCEOLA        RAIN      50  50 100 SE8       29.85R
6HR MIN TEMP:  48; 6HR MAX TEMP:  50; 6HR PCP:  0.44;

$$

WIZ003>005-009-010-017-018-011900-
NORTH CENTRAL WISCONSIN

CITY           SKY/WX    TMP DP  RH WIND       PRES   REMARKS
MANITOWISH WTR CLOUDY    53  46  76 SE9       29.89F
6HR MIN TEMP:  43; 6HR MAX TEMP:  55;

ARBOR VITAE    PTSUNNY   57  48  73 SE13      29.90F
6HR MIN TEMP:  44; 6HR MAX TEMP:  57;

WOODRUFF       PTSUNNY   57  48  73 SE13      29.90F
6HR MIN TEMP:  44; 6HR MAX TEMP:  57;

RHINELANDER    MOSUNNY   56  46  69 SE13      29.93F
6HR MIN TEMP:  43; 6HR MAX TEMP:  57;

EAGLE RIVER    CLOUDY    55  44  67 SE8       29.92F
6HR MIN TEMP:  44; 6HR MAX TEMP:  55;

LAND O LAKES   CLOUDY    55  46  70 SE13      29.93F
6HR MIN TEMP:  45; 6HR MAX TEMP:  55;

PHILLIPS       DRIZZLE   51  47  87 SE7       29.87F
6HR MIN TEMP:  44; 6HR MAX TEMP:  51;

TOMAHAWK       CLOUDY    55  46  73 SE7       29.91F
6HR MIN TEMP:  43; 6HR MAX TEMP:  57;

MEDFORD        CLOUDY    54  47  79 E12G20    29.88F
6HR MIN TEMP:  44; 6HR MAX TEMP:  54;

MERRILL        PTSUNNY   57  48  73 SE13G18   29.91F
6HR MIN TEMP:  45; 6HR MAX TEMP:  57;

$$

WIZ029-030-035-036-043>047-011900-
CENTRAL WISCONSIN

CITY           SKY/WX    TMP DP  RH WIND       PRES   REMARKS
WAUSAU         PTSUNNY   59  48  67 SE13      29.90F
6HR MIN TEMP:  46; 6HR MAX TEMP:  59;

MOSINEE        CLOUDY    57  50  77 SE12      29.92F
MARSHFIELD     FAIR      58  49  72 SE13      29.88F
6HR MIN TEMP:  47; 6HR MAX TEMP:  58;

STEVENS POINT  FAIR      58  47  67 SE13      29.93F
6HR MIN TEMP:  46; 6HR MAX TEMP:  58;

WAUPACA        MOSUNNY   65  50  58 SE10G18   29.94F
6HR MIN TEMP:  50; 6HR MAX TEMP:  66;

WAUTOMA        NOT AVBL
WISC RAPIDS    FAIR      60  49  66 SE12      29.91F
6HR MIN TEMP:  48; 6HR MAX TEMP:  61;

CAMP DOUGLAS   CLOUDY    59  55  88 E10G17    29.88F
$$

WIZ011>013-019>022-031-037>040-048>050-011900-
NORTHEAST WISCONSIN

CITY           SKY/WX    TMP DP  RH WIND       PRES   REMARKS
ANTIGO         CLOUDY    55  49  82 SE15      29.95F
6HR MIN TEMP:  44; 6HR MAX TEMP:  55;

SHAWANO        CLOUDY    62  52  70 SE9       29.95F
6HR MIN TEMP:  49; 6HR MAX TEMP:  63;

OCONTO         CLOUDY    54  54 100 SE9       29.99F
6HR MIN TEMP:  50; 6HR MAX TEMP:  54; 6HR PCP:  0.03;

STURGEON BAY   NOT AVBL
GREEN BAY      CLOUDY    62  52  69 SE13      29.97F
6HR MIN TEMP:  50; 6HR MAX TEMP:  62;

MANITOWOC      NOT AVBL
APPLETON       PTSUNNY   63  50  63 S17       29.96F
CLINTONVILLE   CLOUDY    63  50  63 S10       29.94F
OSHKOSH        SUNNY     64  51  62 SE13G21   29.94F
6HR MIN TEMP:  51; 6HR MAX TEMP:  64;

$$

WIZ032>034-041-042-053>061-011900-
SOUTHWEST WISCONSIN

CITY           SKY/WX    TMP DP  RH WIND       PRES   REMARKS
LA CROSSE      PTSUNNY   60  51  72 SE5       29.85F
6HR MIN TEMP:  51; 6HR MAX TEMP:  60; 6HR PCP: TRACE;

SPARTA         CLOUDY    60  50  69 E10       29.86F
6HR MIN TEMP:  49; 6HR MAX TEMP:  60;

VIROQUA        PTSUNNY   60  51  71 SE13G18   29.86F
6HR MIN TEMP:  48; 6HR MAX TEMP:  60;

BOSCOBEL       PTSUNNY   66  52  60 SE9       29.87S
6HR MIN TEMP:  52; 6HR MAX TEMP:  66;

PRAIRIE DU CHI PTSUNNY   63  50  61 SE9       29.85F
6HR MIN TEMP:  51; 6HR MAX TEMP:  63;

PLATTEVILLE    FAIR      65  54  67 SE14G20   29.87S
6HR MIN TEMP:  49; 6HR MAX TEMP:  65;

$$

WIZ056-057-062-063-064-067-068-011900-
SOUTH CENTRAL WISCONSIN

CITY           SKY/WX    TMP DP  RH WIND       PRES   REMARKS
REEDSBURG      FAIR      61  51  70 SE8G16    29.88F
BARABOO/DELLS  FAIR      64  49  58 SE10      29.89F
6HR MIN TEMP:  48; 6HR MAX TEMP:  64;

LONE ROCK      FAIR      69  51  52 SE9       29.87F
6HR MIN TEMP:  54; 6HR MAX TEMP:  69;

MINERAL POINT  FAIR      63  52  67 SE10      29.88S
MADISON        PTSUNNY   66  50  56 SE18      29.91F
6HR MIN TEMP:  50; 6HR MAX TEMP:  66;

MIDDLETON      FAIR      67  50  53 SE13      29.90F
6HR MIN TEMP:  52; 6HR MAX TEMP:  67;

WATERTOWN      MOSUNNY   65  50  58 SE9G16    29.94F
6HR MIN TEMP:  51; 6HR MAX TEMP:  66;

MONROE         FAIR      64  52  63 SE14G20   29.90F
JANESVILLE     MOSUNNY   70  50  49 SE13      29.93F
$$

WIZ051-052-058>065-066-070>072-011900-
SOUTHEAST WISCONSIN

CITY           SKY/WX    TMP DP  RH WIND       PRES   REMARKS
MILWAUKEE      MOSUNNY   61  50  67 SE20      29.99F
6HR MIN TEMP:  55; 6HR MAX TEMP:  62;

WAUKESHA       SUNNY     63  48  59 SE12      29.98F
MILWAUKEE/TIMM NOT AVBL
RACINE         PTSUNNY   62  50  64 S16G22    30.01F
6HR MIN TEMP:  57; 6HR MAX TEMP:  62;

BURLINGTON     SUNNY     65  49  55 SE6       29.97S
6HR MIN TEMP:  51; 6HR MAX TEMP:  65;

KENOSHA        MOSUNNY   62  51  67 SE15      30.00S
6HR MIN TEMP:  55; 6HR MAX TEMP:  62;

FOND DU LAC    SUNNY     65  50  58 SE14      29.95F
6HR MIN TEMP:  51; 6HR MAX TEMP:  65;

SHEBOYGAN      CLOUDY    61  49  64 SE13G21   29.99
6HR MIN TEMP:  54; 6HR MAX TEMP:  62;

WEST BEND      SUNNY     63  48  59 SE13      29.97S
JUNEAU         PTSUNNY   63  49  61 SE13G20   29.95F
6HR MIN TEMP:  50; 6HR MAX TEMP:  63;

$$

LSZ147-162-011900-
LAKE SUPERIOR

STATION/POSITION TIME  TEMP    WIND        PRES    WAVE
                       AIR SEA DIR/SP/G            HT/PER
                 (UTC) (F)     (DEG/KT/KT) (MB)    (FT/S)
W MID LAKE BUOY  1750   50 50  100/  4/  6 1012.2F   1/ 4
DEVILS ISLAND    1800   49     100/  6/  7 1011.8F
SAXON HARBOR     1700   55      CALM  /  5 1011.9F
$$

LMZ867-665-643>646-011900-
LAKE MICHIGAN

STATION/POSITION TIME  TEMP    WIND        PRES    WAVE
                       AIR SEA DIR/SP/G            HT/PER
                 (UTC) (F)     (DEG/KT/KT) (MB)    (FT/S)
CHAMBERS ISLAND  1700   57     140/  5/ 11 1016.9F
N MID LAKE BUOY  1750   55 58  160/ 12/ 14 1017.0F   1/ 3
NORTHPORT PIER   1700   56     140/ 10/ 13 1016.9F
SISTER BAY       1642          180/ 17/ 21   N/A


USA.gov is the U.S. government's official web portal to all federal, state and local government web resources and services.